Wind_Speed
57 57 57 58 58 60 60 60 58 55 53 52 53 55 56 57 58 58 60 62 64 66 67 68 69 70 70 70 69 69 69 69 67 64 67 71 72 73 74 75 75 75 76
62 61 61 60 59 58 57 56 56 55 54 54 53 53 53 55 58 60 62 63 64 66 68 70 70 70 68 67 66 66 67 69 69 66 64 67 69 71 73 74 76 78 81
65 64 64 62 58 55 53 54 55 54 54 54 53 54 56 58 61 63 63 64 65 67 68 69 69 68 67 66 66 68 70 71 71 68 65 66 67 70 74 76 78 80 84
66 66 65 60 55 53 54 55 56 56 56 55 56 57 59 61 63 63 63 64 66 67 67 67 67 69 70 70 70 71 72 73 73 72 69 68 70 74 78 79 79 81 84
65 64 62 56 54 53 55 57 58 59 58 57 57 58 60 62 63 63 63 64 64 65 65 65 66 69 70 71 71 72 74 75 75 75 73 71 72 75 78 80 81 83 85
63 62 59 58 57 57 58 60 61 60 59 58 58 59 61 62 62 60 59 59 60 61 63 64 67 70 71 71 71 72 73 75 76 75 73 72 72 75 79 82 85 88 88
66 65 65 65 64 63 62 62 62 62 61 60 59 59 60 60 57 54 54 56 57 59 61 63 66 67 68 67 67 67 69 70 71 70 70 71 74 77 83 86 88 90 91
73 72 72 71 70 68 65 63 63 63 62 61 58 57 58 57 55 53 54 55 55 56 58 62 65 66 68 69 68 67 66 65 67 68 71 74 78 82 86 89 90 92 92
79 78 77 74 72 68 64 64 64 65 65 62 58 58 58 58 56 55 55 55 56 58 62 66 68 68 69 71 71 69 67 67 68 70 74 77 80 83 87 90 92 96 97
79 79 77 74 71 67 64 64 65 66 65 63 61 61 61 61 59 58 58 59 61 65 69 72 73 72 72 72 72 71 71 71 71 73 75 78 80 82 85 89 94 98 101
78 78 76 73 69 67 66 65 65 64 64 63 62 63 64 64 63 63 63 64 67 70 73 76 77 77 76 74 73 73 73 73 73 75 76 77 79 81 84 87 93 98 98
75 74 74 72 69 68 68 67 65 64 64 63 64 66 67 67 68 69 70 70 72 75 76 77 78 77 77 75 74 73 73 73 74 74 75 77 78 81 84 88 93 94 87
72 72 73 73 72 71 70 69 67 66 66 65 65 67 70 72 73 75 76 76 77 78 78 77 76 75 76 75 74 74 74 74 73 74 75 76 79 82 86 89 89 82 72
74 74 75 75 73 72 71 70 70 69 69 68 68 70 72 74 76 78 79 80 79 77 76 77 77 76 76 75 74 74 72 71 71 73 75 77 81 84 88 88 80 70 61
77 77 78 79 77 76 75 74 73 72 72 73 75 76 77 76 76 78 79 78 76 75 77 78 77 76 74 73 71 69 66 66 68 72 76 78 82 86 87 81 70 60 54
81 81 82 83 81 80 79 79 78 76 76 77 78 78 76 75 76 77 77 78 77 77 77 76 74 72 69 66 63 60 60 62 67 71 75 79 83 85 81 72 62 55 51
81 83 84 84 83 83 83 83 82 82 82 82 80 78 77 77 78 78 79 78 76 75 73 72 69 66 61 57 55 54 56 61 66 70 74 79 81 79 72 64 56 52 49
86 86 86 86 85 85 85 85 85 86 87 86 84 82 82 83 83 82 80 76 74 71 68 65 62 59 54 50 49 51 55 59 64 68 72 76 76 71 64 59 55 51 48
100 99 99 98 96 95 95 94 93 93 93 92 91 90 89 88 86 81 75 71 69 65 62 59 56 52 48 46 46 49 54 58 62 66 70 72 69 64 59 57 53 50 47
102 102 102 103 103 104 104 104 105 103 99 96 92 88 83 77 72 67 65 63 60 57 56 54 51 46 43 43 45 49 53 57 61 65 68 67 63 59 56 54 51 48 44
77 78 79 81 84 86 88 90 90 87 82 77 72 67 62 61 60 60 57 54 52 52 52 50 46 42 40 43 46 50 53 57 61 64 66 64 59 54 52 50 47 45 42
49 50 51 54 56 58 59 59 57 54 53 52 51 51 53 53 52 50 49 48 49 49 48 46 42 39 40 44 47 50 54 57 61 64 64 62 57 51 47 45 43 41 39
39 40 42 44 44 43 43 41 40 41 43 44 44 44 46 47 46 46 45 45 46 46 46 43 41 41 43 46 50 53 56 59 62 65 64 60 54 48 43 40 38 37 36
34 35 35 36 35 36 36 37 37 39 40 42 44 46 46 45 43 42 42 43 44 44 44 42 42 43 46 49 53 56 59 61 64 66 64 59 52 46 41 37 35 34 33
27 27 28 29 31 33 35 36 36 37 39 41 42 41 40 38 37 38 39 41 43 43 43 43 43 45 48 52 55 58 60 63 66 67 62 57 51 45 40 36 32 30 29
23 24 26 26 27 29 31 33 34 35 35 33 31 30 30 30 32 35 38 41 43 44 44 44 46 48 51 55 58 60 62 65 67 65 59 54 49 44 38 34 30 28 26
Wind_Direction
271 272 271 272 273 274 275 276 275 274 273 272 272 272 272 273 274 277 279 281 281 281 281 281 281 281 281 282 282 281 281 281 279 277 276 277 278 278 278 278 278 278 278
275 276 275 275 275 275 274 273 273 272 272 273 274 274 275 276 278 280 282 283 283 283 283 283 283 283 283 283 282 282 282 283 283 280 278 278 279 279 279 280 280 282 284
276 278 278 278 276 275 272 270 269 270 271 273 274 275 277 279 281 283 284 284 284 284 285 285 285 284 284 283 283 283 284 285 285 284 281 280 280 280 281 282 284 287 289
275 276 277 276 274 272 269 268 269 270 273 275 277 279 280 282 283 283 284 284 284 285 287 287 287 287 287 286 285 284 284 284 285 285 284 283 284 284 284 285 287 290 293
271 272 271 270 270 270 269 270 272 275 277 278 278 279 280 281 282 282 284 285 286 288 290 291 291 291 291 290 288 287 286 286 286 287 286 286 285 285 287 289 291 293 296
269 268 266 267 269 271 272 273 275 276 276 277 278 278 279 280 281 284 287 288 289 291 293 294 294 294 293 292 291 291 290 289 288 287 287 287 287 289 291 294 295 296 299
268 267 267 269 271 273 273 274 274 275 275 275 276 277 278 279 281 284 286 288 290 293 295 297 297 297 296 294 294 294 294 293 292 291 290 291 292 293 294 296 297 299 303
265 266 268 270 272 273 273 273 273 274 275 274 275 275 276 279 281 283 284 286 290 296 301 302 301 299 296 294 293 294 295 295 293 293 293 294 295 296 297 298 299 300 304
266 267 267 268 269 270 270 272 273 274 275 275 273 272 275 277 279 280 281 285 291 298 304 308 308 304 300 296 295 294 294 294 294 294 295 296 297 298 299 299 301 302 305
264 265 265 265 265 266 268 270 273 276 277 276 275 275 276 276 277 278 280 285 291 298 304 308 311 311 307 302 299 297 296 296 297 297 297 297 298 299 299 300 303 304 307
265 266 265 265 264 266 268 271 273 274 276 275 275 276 275 275 276 277 280 285 291 297 302 305 308 311 310 305 302 300 298 298 298 299 299 300 300 300 300 302 305 306 307
264 266 266 265 265 268 270 272 272 273 273 273 273 274 274 275 276 277 279 284 289 294 298 302 305 308 308 305 301 300 299 299 300 301 301 302 302 302 304 305 306 307 305
260 263 265 265 265 266 269 270 271 271 272 272 272 272 272 273 275 276 279 283 287 291 295 299 302 303 304 302 299 297 297 298 299 301 302 303 304 305 306 307 307 304 300
256 258 261 263 264 265 266 266 267 267 268 269 269 270 271 273 275 277 279 283 287 290 293 296 298 299 300 298 296 295 295 297 299 302 303 305 306 308 309 309 306 301 296
251 254 256 257 259 261 262 262 262 263 264 266 267 267 269 271 274 276 278 283 286 289 291 293 294 295 295 294 293 293 295 298 301 304 306 307 309 310 311 309 305 300 297
245 248 251 253 255 257 258 258 258 258 259 260 262 263 264 267 270 274 278 282 285 286 287 288 290 290 290 290 290 292 296 300 303 306 308 310 312 313 312 309 305 302 300
244 245 247 248 251 252 253 253 253 254 256 257 258 259 262 266 270 274 280 284 283 282 282 284 285 285 285 285 287 292 297 302 306 309 312 315 316 315 313 310 307 306 305
253 253 252 252 253 252 253 253 253 254 255 257 259 263 267 271 275 279 282 281 278 276 277 278 280 280 280 282 287 294 300 305 310 314 317 318 318 317 314 311 309 310 309
264 264 263 263 262 263 262 263 262 262 262 263 265 269 272 275 278 278 276 272 270 271 273 274 275 275 276 281 288 296 303 309 314 318 321 321 320 316 313 311 310 311 311
268 269 268 268 267 266 265 266 266 267 268 269 270 272 274 274 272 267 264 263 264 267 270 270 270 270 274 281 290 299 306 312 317 321 323 322 318 314 312 310 310 311 311
264 265 266 266 266 265 265 265 266 267 269 270 271 270 266 262 259 258 258 260 263 266 266 265 265 268 276 284 293 302 309 313 318 322 323 321 316 312 310 309 309 309 310
260 261 263 265 265 264 263 262 261 261 261 262 261 257 253 251 253 255 258 261 262 263 262 261 263 270 279 288 296 304 310 314 318 322 323 319 314 310 308 308 308 309 310
261 262 263 265 265 263 258 253 252 252 253 252 251 248 247 248 252 255 257 258 259 259 259 260 265 274 282 291 298 304 310 314 318 321 321 318 312 308 307 308 309 309 311
261 261 261 260 259 256 250 248 249 250 248 246 247 247 247 247 248 249 251 253 256 257 257 261 268 277 286 294 300 305 310 315 318 320 319 317 312 308 307 309 310 310 311
257 255 254 254 252 249 248 249 248 246 246 248 248 244 240 238 240 244 249 252 255 256 259 266 274 282 290 296 301 305 310 315 317 318 317 314 311 307 306 307 308 309 309
251 250 252 254 251 247 246 245 245 245 245 240 233 228 229 234 241 246 250 253 255 259 266 273 280 287 293 298 301 305 310 313 315 316 314 311 310 306 302 302 304 305 305
Height
5655 5654 5652 5651 5649 5647 5646 5645 5643 5641 5639 5637 5635 5634 5632 5631 5630 5627 5624 5621 5618 5614 5610 5606 5602 5599 5595 5591 5588 5585 5581 5580 5584 5589 5581 5574 5567 5563 5558 5554 5550 5547 5543
5639 5638 5637 5635 5632 5631 5630 5629 5627 5626 5624 5622 5620 5618 5617 5615 5613 5609 5606 5602 5599 5596 5592 5587 5583 5579 5575 5571 5568 5564 5560 5556 5556 5561 5562 5553 5547 5541 5535 5530 5525 5520 5515
5621 5620 5618 5616 5614 5613 5612 5611 5610 5609 5608 5606 5604 5602 5600 5597 5594 5591 5587 5584 5580 5576 5572 5568 5564 5560 5556 5552 5548 5544 5539 5535 5531 5532 5535 5530 5525 5517 5510 5506 5500 5495 5487
5602 5601 5600 5599 5598 5596 5595 5594 5593 5592 5591 5589 5587 5584 5582 5579 5576 5572 5568 5565 5562 5558 5554 5550 5546 5542 5537 5532 5527 5522 5517 5513 5508 5505 5506 5505 5500 5491 5484 5480 5477 5472 5464
5581 5582 5582 5582 5581 5580 5578 5577 5575 5574 5572 5570 5567 5565 5562 5560 5557 5553 5550 5547 5544 5540 5535 5531 5527 5523 5517 5512 5507 5501 5496 5490 5484 5480 5480 5479 5474 5465 5458 5452 5447 5445 5440
5561 5562 5563 5563 5562 5561 5560 5558 5556 5555 5553 5551 5548 5546 5544 5542 5539 5536 5533 5529 5526 5522 5518 5513 5509 5503 5498 5492 5487 5481 5475 5469 5463 5458 5457 5453 5447 5438 5430 5424 5417 5412 5411
5542 5542 5542 5542 5541 5541 5540 5538 5537 5536 5534 5532 5530 5528 5526 5524 5522 5518 5515 5512 5509 5505 5500 5496 5491 5485 5479 5474 5469 5462 5455 5447 5440 5436 5433 5427 5421 5414 5404 5398 5388 5378 5374
5521 5521 5520 5520 5520 5520 5519 5519 5518 5516 5515 5513 5511 5510 5509 5507 5504 5501 5499 5496 5492 5487 5483 5479 5474 5468 5462 5457 5452 5446 5438 5430 5422 5417 5411 5404 5396 5386 5375 5365 5357 5349 5348
5499 5499 5498 5498 5498 5498 5499 5499 5499 5498 5497 5495 5493 5492 5491 5488 5486 5483 5481 5478 5473 5469 5465 5461 5456 5450 5443 5438 5433 5427 5421 5413 5405 5398 5390 5383 5374 5363 5349 5337 5328 5316 5315
5475 5475 5475 5475 5475 5477 5478 5479 5480 5479 5478 5476 5476 5475 5473 5470 5468 5465 5463 5459 5456 5452 5447 5442 5437 5432 5425 5418 5412 5406 5400 5393 5386 5380 5372 5364 5354 5344 5330 5315 5301 5288 5280
5452 5453 5453 5453 5454 5456 5457 5459 5460 5460 5459 5458 5458 5457 5454 5452 5449 5446 5444 5440 5436 5432 5428 5423 5418 5413 5407 5400 5393 5387 5380 5373 5366 5359 5351 5343 5333 5323 5311 5297 5280 5261 5249
5430 5431 5432 5433 5434 5436 5437 5439 5440 5441 5440 5440 5439 5437 5435 5433 5430 5427 5425 5421 5417 5413 5408 5403 5398 5393 5388 5382 5375 5368 5361 5353 5346 5339 5331 5322 5312 5302 5289 5276 5260 5242 5225
5408 5410 5411 5412 5414 5416 5417 5418 5420 5421 5421 5420 5419 5417 5415 5413 5411 5408 5405 5402 5398 5394 5389 5384 5379 5374 5369 5363 5356 5349 5342 5335 5327 5320 5312 5303 5292 5281 5268 5254 5238 5221 5210
5386 5388 5390 5391 5393 5395 5397 5398 5399 5400 5400 5400 5399 5398 5396 5394 5391 5388 5385 5382 5379 5375 5369 5365 5361 5356 5351 5345 5338 5331 5324 5316 5308 5301 5292 5283 5273 5260 5246 5229 5214 5201 5193
5361 5365 5367 5369 5371 5373 5374 5376 5377 5379 5379 5379 5378 5377 5375 5374 5372 5369 5365 5362 5359 5354 5349 5345 5340 5336 5332 5326 5320 5313 5306 5299 5291 5282 5273 5263 5251 5238 5222 5205 5191 5181 5174
5334 5339 5341 5344 5347 5349 5351 5353 5354 5356 5356 5355 5355 5354 5352 5351 5348 5347 5344 5341 5337 5333 5329 5325 5320 5316 5312 5308 5302 5297 5290 5283 5275 5265 5254 5242 5229 5214 5200 5185 5173 5164 5158
5306 5310 5313 5317 5320 5322 5325 5326 5328 5330 5331 5331 5331 5330 5329 5327 5326 5325 5322 5318 5315 5312 5309 5305 5302 5299 5295 5291 5287 5283 5277 5268 5259 5248 5236 5222 5207 5192 5178 5167 5158 5150 5143
5277 5281 5286 5289 5292 5294 5297 5300 5301 5304 5306 5306 5308 5306 5304 5303 5303 5302 5300 5298 5295 5292 5290 5287 5285 5283 5280 5277 5273 5269 5262 5254 5244 5232 5219 5205 5189 5175 5163 5154 5145 5136 5129
5247 5252 5256 5261 5265 5267 5270 5272 5275 5277 5279 5281 5283 5282 5281 5280 5279 5279 5278 5277 5275 5273 5272 5271 5270 5268 5266 5264 5260 5255 5248 5239 5229 5217 5204 5190 5175 5163 5153 5143 5134 5126 5117
5218 5222 5226 5230 5234 5238 5242 5244 5247 5249 5252 5254 5256 5257 5257 5256 5256 5256 5256 5256 5256 5256 5256 5256 5255 5254 5253 5251 5247 5241 5234 5224 5214 5203 5190 5177 5164 5153 5144 5134 5124 5116 5108
5194 5196 5199 5202 5205 5209 5212 5216 5219 5221 5224 5227 5230 5231 5233 5234 5235 5236 5238 5240 5241 5241 5241 5242 5242 5241 5240 5238 5233 5227 5219 5210 5200 5189 5177 5165 5154 5145 5136 5126 5116 5107 5099
5175 5177 5180 5182 5184 5186 5189 5192 5196 5199 5203 5205 5208 5210 5214 5217 5219 5222 5224 5226 5227 5228 5229 5230 5230 5229 5227 5224 5219 5213 5205 5196 5186 5176 5165 5154 5144 5135 5127 5117 5108 5099 5092
5160 5162 5164 5166 5168 5169 5172 5176 5180 5184 5187 5190 5193 5196 5200 5203 5206 5209 5211 5213 5215 5216 5217 5218 5217 5216 5214 5210 5205 5199 5192 5183 5172 5162 5153 5143 5133 5125 5117 5109 5100 5092 5085
5146 5148 5150 5152 5154 5156 5160 5164 5168 5171 5174 5178 5181 5184 5187 5190 5194 5197 5200 5202 5205 5206 5207 5206 5205 5203 5200 5196 5191 5185 5177 5168 5159 5149 5139 5130 5122 5114 5107 5100 5093 5086 5080
5134 5136 5138 5141 5143 5146 5149 5152 5155 5158 5162 5165 5168 5171 5175 5179 5183 5187 5191 5194 5195 5196 5196 5195 5193 5190 5186 5182 5177 5171 5162 5153 5144 5136 5127 5119 5111 5104 5098 5092 5086 5081 5075
5125 5128 5130 5131 5133 5135 5138 5141 5144 5148 5151 5154 5158 5162 5167 5172 5176 5180 5183 5184 5185 5185 5184 5182 5179 5176 5172 5167 5162 5156 5148 5140 5132 5124 5115 5108 5101 5095 5089 5085 5080 5075 5070